Temp
65 64 65 66 66 68 67 67 67 69 70 70 69 70 64 64 67 75 77 75 75 75 73 70 71 71 71 71 72 70 67 66 68 65 64 67 70 71 71 72 75 76 78
60 60 62 63 62 63 66 66 67 68 70 69 70 69 65 64 65 66 69 74 74 73 72 71 69 72 69 69 69 67 66 66 65 62 62 59 63 65 70 71 72 72 74
52 56 56 55 57 57 60 63 66 68 69 70 68 67 66 64 63 66 69 70 72 72 72 72 70 68 69 67 67 66 64 62 67 66 65 59 59 67 73 70 72 72 71
54 54 52 51 53 53 57 60 65 68 69 69 66 65 61 62 66 67 68 69 70 70 69 71 71 69 68 66 67 68 67 66 64 66 68 69 66 62 62 72 72 73 73
50 49 49 48 50 51 52 55 62 65 67 67 67 64 62 62 62 64 64 66 67 68 67 67 68 68 67 67 67 66 67 66 65 65 65 65 65 63 58 58 65 68 71
48 49 51 50 48 50 51 53 54 55 60 62 59 56 56 54 54 56 59 58 58 57 58 60 61 65 65 64 65 66 66 66 65 65 65 63 59 58 58 56 60 62 68
46 46 46 46 45 46 49 51 51 51 54 54 53 53 53 54 52 53 54 55 55 54 54 56 57 58 58 58 59 61 63 64 62 63 62 63 62 63 62 59 59 59 65
46 45 44 45 44 45 47 50 50 50 51 51 50 50 51 50 50 52 53 52 52 52 53 54 55 55 56 55 56 57 57 57 60 62 63 63 62 62 62 60 57 55 58
45 45 44 44 45 45 45 49 51 50 52 52 51 50 51 50 49 51 51 49 50 52 51 52 52 53 53 53 53 53 53 53 55 55 54 57 61 62 62 61 60 57 53
44 44 44 44 44 46 47 45 46 49 49 50 52 51 51 51 51 50 48 48 49 50 50 51 51 51 52 52 52 52 52 52 52 52 53 54 54 55 57 60 61 60 57
43 44 44 44 44 44 44 45 45 44 48 48 47 48 48 47 48 48 49 49 49 49 49 50 50 51 50 51 51 50 51 50 50 51 50 51 53 52 53 53 56 58 58
45 45 44 44 44 43 43 43 45 44 46 46 47 47 48 49 49 49 49 51 51 53 52 52 52 51 52 51 50 49 51 50 49 49 50 50 51 50 51 50 50 51 51
48 49 48 47 47 47 46 47 48 49 50 52 52 50 50 49 49 49 48 49 49 50 51 51 50 50 51 51 51 51 51 51 51 51 50 50 51 49 47 48 49 49 51
54 55 56 56 55 53 53 52 51 52 51 51 50 49 49 49 48 48 48 48 49 49 49 49 49 49 50 51 48 48 49 49 50 50 50 50 48 46 46 47 47 49 47
54 55 54 56 55 54 53 53 52 51 51 50 49 48 48 49 48 47 47 47 47 47 47 48 48 48 48 49 45 45 46 47 47 48 49 49 47 46 47 46 45 45 44
55 55 56 55 54 54 53 51 51 50 51 50 49 49 48 48 47 47 47 47 46 46 46 46 46 45 47 47 45 45 44 45 45 45 45 46 46 48 48 49 48 47 44
56 56 55 55 55 54 53 51 50 50 49 48 48 47 47 46 46 46 46 45 45 45 44 44 44 43 45 46 45 44 43 43 44 43 43 44 47 45 46 47 47 47 48
57 57 57 56 55 54 51 50 49 49 47 47 47 46 45 44 44 44 43 43 43 42 42 42 42 42 43 44 43 43 42 42 43 43 43 43 44 44 43 42 41 42 44
60 59 59 57 55 52 51 49 47 47 46 45 45 44 44 42 42 41 41 41 40 40 40 41 41 40 41 43 42 41 41 41 42 45 46 45 44 45 43 40 38 39 40
58 57 56 54 53 51 50 47 47 45 44 43 42 43 43 41 40 40 39 40 40 39 40 39 40 42 41 44 43 42 41 40 42 44 45 45 44 43 43 40 38 36 37
54 54 52 50 50 49 47 45 45 43 42 41 41 41 41 40 40 39 39 38 38 39 38 39 41 42 43 43 43 42 41 40 39 40 41 43 44 43 42 42 39 38 41
50 50 49 48 46 45 44 43 42 42 41 40 39 39 40 40 40 39 39 39 39 39 39 39 39 41 43 43 43 43 42 42 39 38 41 42 42 42 42 41 42 42 41
48 49 48 45 45 44 43 41 42 40 39 39 38 39 39 39 40 39 38 37 38 37 36 36 36 37 39 40 41 42 42 42 40 40 41 41 42 42 41 41 41 41 37
47 47 46 44 42 42 41 41 40 39 37 37 37 38 37 38 38 38 38 36 35 35 34 34 34 34 35 36 38 39 38 40 40 40 39 40 40 41 41 40 39 38 36
46 45 44 43 43 41 40 40 39 38 36 37 37 37 37 37 37 37 37 36 37 36 34 33 33 32 32 35 38 37 36 37 38 38 37 35 35 34 35 36 36 36 35
44 42 42 41 40 39 38 38 38 37 35 34 35 36 35 35 35 35 35 39 38 38 37 37 36 36 37 37 37 37 38 38 39 35 32 32 33 33 33 33 33 33 34
MSLP
1013.51 1013.74 1013.58 1012.94 1012.65 1012.08 1011.80 1011.41 1011.20 1010.94 1010.73 1010.54 1010.50 1010.06 1010.45 1010.79 1010.48 1009.70 1009.64 1010.04 1010.61 1011.04 1011.54 1011.70 1011.82 1012.35 1012.67 1012.74 1012.89 1012.79 1012.96 1013.10 1013.23 1013.47 1013.52 1013.41 1013.35 1013.28 1013.02 1012.78 1012.66 1012.53 1012.25
1014.06 1014.27 1014.01 1013.44 1013.25 1012.80 1011.65 1011.24 1010.83 1010.54 1010.32 1010.35 1010.09 1009.93 1010.40 1010.52 1010.37 1010.20 1010.16 1009.89 1010.16 1010.72 1011.07 1011.34 1011.70 1011.71 1012.33 1012.30 1012.60 1012.67 1012.83 1012.90 1013.14 1013.06 1013.19 1012.97 1012.88 1012.65 1012.15 1012.32 1012.33 1012.20 1012.00
1015.55 1015.20 1015.07 1014.81 1014.09 1013.59 1012.76 1011.81 1010.58 1010.15 1009.95 1009.93 1009.97 1010.07 1010.02 1010.10 1010.23 1009.74 1009.59 1009.72 1009.91 1010.15 1010.44 1010.90 1011.25 1011.54 1011.99 1012.09 1012.27 1012.10 1012.28 1012.54 1012.47 1012.44 1012.36 1012.17 1011.78 1011.40 1010.87 1011.18 1011.19 1011.46 1011.61
1016.54 1016.30 1016.19 1015.66 1014.90 1014.40 1013.30 1012.09 1010.45 1009.66 1009.51 1009.29 1009.38 1009.85 1009.74 1009.41 1009.16 1008.92 1008.99 1009.15 1009.48 1009.86 1010.20 1010.60 1011.04 1011.29 1011.53 1011.48 1011.74 1011.73 1011.43 1011.93 1011.98 1011.84 1011.68 1011.55 1011.59 1011.35 1010.72 1010.37 1010.27 1010.30 1010.33
1017.28 1016.95 1016.68 1016.28 1015.60 1014.75 1013.70 1012.61 1010.80 1009.76 1009.14 1009.23 1009.28 1009.68 1010.00 1009.79 1008.93 1009.03 1008.98 1009.40 1009.73 1010.24 1010.49 1010.71 1011.04 1011.29 1011.30 1011.27 1011.38 1011.30 1011.07 1011.36 1011.34 1011.36 1011.31 1011.42 1011.40 1011.52 1011.62 1010.79 1010.37 1010.20 1009.97
1017.66 1017.28 1017.05 1016.51 1015.90 1015.16 1014.32 1013.27 1012.11 1011.30 1010.35 1009.93 1010.54 1010.87 1011.12 1010.80 1010.53 1008.57 1009.41 1009.99 1010.60 1011.06 1011.53 1011.62 1011.57 1011.37 1011.37 1011.37 1011.31 1011.06 1011.03 1011.10 1010.91 1011.08 1011.07 1011.13 1010.96 1010.89 1011.09 1010.79 1010.34 1009.99 1009.62
1017.95 1017.62 1017.27 1016.77 1016.41 1015.92 1015.08 1014.23 1013.41 1012.70 1012.05 1011.37 1011.33 1011.29 1012.59 1011.80 1012.39 1011.68 1011.07 1010.98 1011.30 1011.96 1012.33 1012.48 1012.51 1012.29 1011.99 1012.05 1011.84 1011.51 1010.97 1010.95 1010.67 1010.55 1010.77 1010.41 1010.03 1010.25 1010.34 1010.24 1009.86 1009.54 1009.07
1018.02 1017.92 1017.67 1017.23 1016.93 1016.72 1016.02 1015.14 1014.68 1013.97 1013.37 1012.43 1012.04 1013.00 1013.34 1013.16 1012.72 1012.68 1012.45 1011.98 1012.74 1012.90 1013.18 1013.19 1013.15 1012.89 1012.44 1012.38 1012.26 1011.76 1011.45 1011.31 1010.70 1010.31 1009.99 1009.67 1009.48 1009.55 1009.35 1009.35 1009.57 1008.92 1008.60
1018.04 1018.01 1017.89 1017.61 1017.37 1017.09 1016.88 1016.07 1015.56 1015.21 1014.53 1014.18 1014.15 1013.55 1013.48 1013.56 1013.69 1013.13 1012.84 1013.30 1013.72 1013.85 1014.02 1013.83 1013.59 1013.37 1012.84 1012.81 1012.72 1012.22 1011.88 1011.94 1011.40 1010.88 1010.54 1009.88 1008.89 1008.62 1008.50 1008.52 1008.32 1008.24 1007.79
1018.09 1018.01 1017.97 1017.76 1017.57 1017.45 1017.30 1016.97 1016.46 1015.78 1015.44 1015.20 1014.78 1014.38 1014.73 1014.55 1014.39 1014.46 1014.71 1014.84 1014.51 1014.39 1014.21 1014.08 1013.63 1013.52 1013.24 1013.19 1013.03 1012.86 1012.18 1011.98 1011.72 1011.19 1011.08 1010.44 1010.17 1009.64 1008.95 1008.23 1007.61 1007.51 1007.08
1017.82 1017.83 1017.82 1017.80 1017.74 1017.53 1017.26 1017.03 1016.92 1016.89 1016.48 1016.05 1015.71 1015.44 1015.44 1015.53 1015.51 1015.43 1015.00 1014.64 1014.73 1014.78 1014.55 1014.28 1013.99 1013.43 1013.55 1013.17 1012.77 1012.60 1012.35 1012.26 1011.91 1011.53 1011.39 1010.99 1010.54 1010.00 1009.50 1009.09 1008.18 1007.03 1006.41
1017.30 1017.40 1017.44 1017.41 1017.41 1017.45 1017.26 1017.00 1016.80 1016.48 1016.19 1016.20 1016.09 1016.04 1016.05 1015.89 1015.57 1015.34 1015.43 1015.55 1015.39 1015.08 1014.88 1014.51 1014.14 1013.59 1013.40 1013.63 1012.77 1012.65 1012.48 1012.49 1012.12 1011.75 1011.39 1011.25 1010.62 1010.05 1010.10 1009.67 1009.02 1008.43 1007.87
1016.43 1016.43 1016.52 1016.68 1016.82 1016.88 1016.93 1016.85 1016.76 1016.62 1016.37 1016.13 1016.07 1016.04 1015.97 1015.95 1015.85 1015.77 1015.63 1015.56 1015.41 1015.12 1014.98 1014.71 1014.40 1014.15 1014.00 1013.54 1013.30 1013.28 1013.10 1012.71 1012.15 1012.00 1011.75 1011.50 1010.91 1010.62 1010.49 1009.97 1009.31 1008.77 1008.44
1014.88 1015.00 1015.00 1015.21 1015.71 1016.08 1016.24 1016.35 1016.44 1016.50 1016.41 1016.45 1016.43 1016.32 1016.19 1016.10 1016.03 1015.91 1015.75 1015.63 1015.42 1015.24 1015.12 1014.88 1014.65 1014.41 1014.02 1013.74 1014.01 1013.71 1013.16 1012.71 1012.38 1012.15 1011.82 1011.60 1011.33 1011.17 1010.69 1010.18 1009.84 1009.42 1008.92
1013.67 1013.99 1014.35 1014.55 1015.08 1015.60 1015.99 1016.31 1016.47 1016.54 1016.53 1016.53 1016.53 1016.58 1016.56 1016.51 1016.34 1016.20 1016.17 1016.10 1015.92 1015.66 1015.44 1015.14 1014.85 1014.63 1014.50 1014.11 1014.38 1014.02 1013.48 1013.00 1012.51 1012.22 1011.85 1011.52 1011.29 1011.08 1010.75 1010.55 1010.13 1009.84 1009.41
1012.61 1013.03 1013.48 1014.03 1014.53 1015.05 1015.57 1016.17 1016.48 1016.61 1016.69 1016.61 1016.70 1016.73 1016.72 1016.68 1016.64 1016.57 1016.42 1016.22 1016.03 1015.86 1015.67 1015.38 1015.11 1014.85 1014.54 1014.38 1014.40 1014.15 1013.66 1013.07 1012.54 1012.16 1011.95 1011.69 1011.21 1010.85 1010.67 1010.36 1010.31 1010.18 1009.74
1011.87 1012.44 1013.04 1013.62 1014.25 1014.75 1015.38 1015.81 1016.26 1016.54 1016.68 1016.83 1016.95 1017.03 1017.01 1016.95 1016.89 1016.83 1016.68 1016.50 1016.32 1016.11 1015.88 1015.59 1015.38 1015.12 1014.79 1014.51 1014.42 1014.16 1013.77 1013.21 1012.66 1012.33 1012.04 1011.66 1011.21 1010.94 1010.58 1010.40 1010.20 1009.78 1009.46
1011.35 1011.96 1012.67 1013.43 1014.20 1014.98 1015.67 1016.17 1016.65 1016.83 1016.98 1017.01 1017.11 1017.19 1017.26 1017.24 1017.16 1017.05 1016.88 1016.72 1016.58 1016.31 1016.05 1015.81 1015.51 1015.16 1014.85 1014.55 1014.34 1014.15 1013.82 1013.19 1012.67 1012.24 1011.90 1011.53 1011.21 1011.04 1010.87 1010.75 1010.34 1009.95 1009.41
1010.96 1011.77 1012.50 1013.33 1014.25 1015.09 1015.75 1016.29 1016.68 1016.99 1017.22 1017.33 1017.50 1017.58 1017.54 1017.44 1017.32 1017.20 1017.12 1017.03 1016.83 1016.55 1016.22 1015.90 1015.54 1015.19 1014.79 1014.51 1014.25 1014.05 1013.50 1012.84 1012.29 1011.73 1011.33 1011.10 1011.01 1010.79 1010.80 1010.62 1010.19 1009.71 1009.36
1011.32 1011.89 1012.69 1013.66 1014.48 1015.23 1015.87 1016.29 1016.58 1017.10 1017.34 1017.67 1017.90 1017.98 1017.95 1017.86 1017.66 1017.57 1017.39 1017.21 1016.91 1016.52 1016.08 1015.70 1015.24 1014.74 1014.29 1013.93 1013.78 1013.70 1013.16 1012.53 1011.93 1011.49 1011.13 1010.81 1010.75 1010.76 1010.75 1010.50 1010.15 1009.72 1009.31
1011.88 1012.35 1013.06 1013.78 1014.41 1015.22 1015.90 1016.31 1016.68 1017.00 1017.46 1017.74 1017.82 1017.84 1017.79 1017.70 1017.56 1017.40 1017.19 1016.90 1016.50 1016.10 1015.69 1015.07 1014.57 1014.13 1013.80 1013.56 1013.40 1013.25 1012.94 1012.45 1012.00 1011.44 1010.91 1010.52 1010.38 1010.40 1010.27 1009.90 1009.61 1009.17 1008.72
1012.27 1012.92 1013.54 1014.24 1014.95 1015.52 1015.96 1016.23 1016.61 1017.10 1017.43 1017.56 1017.61 1017.51 1017.43 1017.41 1017.29 1017.07 1016.75 1016.34 1015.97 1015.62 1015.29 1014.85 1014.35 1013.97 1013.63 1013.33 1013.06 1012.73 1012.48 1012.17 1011.79 1011.30 1010.77 1010.33 1010.07 1009.90 1009.58 1009.23 1008.86 1008.43 1008.14
1012.71 1013.20 1013.59 1014.25 1014.97 1015.60 1016.03 1016.21 1016.49 1017.04 1017.26 1017.29 1017.21 1017.18 1017.21 1017.19 1017.01 1016.75 1016.54 1016.24 1015.90 1015.53 1015.19 1014.91 1014.36 1013.82 1013.48 1013.25 1012.96 1012.53 1012.04 1011.71 1011.23 1010.84 1010.34 1009.96 1009.48 1009.04 1008.67 1008.38 1008.08 1007.82 1007.57
1012.89 1013.53 1013.99 1014.47 1015.05 1015.65 1016.15 1016.52 1017.00 1017.37 1017.39 1017.26 1017.20 1017.17 1017.09 1016.93 1016.80 1016.58 1016.36 1016.11 1015.89 1015.52 1015.21 1014.85 1014.47 1014.12 1013.74 1013.25 1012.79 1012.43 1012.19 1011.63 1011.01 1010.46 1010.00 1009.51 1009.25 1008.82 1008.44 1008.11 1007.92 1007.72 1007.45
1013.12 1013.86 1014.30 1014.70 1015.10 1015.71 1016.12 1016.51 1016.89 1017.10 1017.13 1017.11 1017.13 1017.07 1016.98 1016.86 1016.57 1016.35 1016.13 1015.91 1015.70 1015.55 1015.36 1015.02 1014.76 1014.30 1013.59 1013.17 1012.74 1012.24 1011.80 1011.29 1010.83 1010.19 1009.69 1009.19 1008.78 1008.37 1008.00 1007.82 1007.55 1007.28 1006.99
1013.07 1013.83 1014.42 1014.93 1015.45 1015.99 1016.31 1016.56 1016.90 1017.17 1017.28 1017.27 1017.13 1016.99 1016.96 1016.73 1016.42 1016.08 1015.69 1015.56 1015.35 1015.18 1015.25 1014.92 1014.45 1014.01 1013.41 1012.88 1012.41 1011.90 1011.24 1010.72 1010.26 1009.75 1009.20 1008.66 1008.22 1007.92 1007.64 1007.39 1007.09 1006.86 1006.55
Wind_Speed
16 15 17 16 19 14 14 14 15 15 11 8 8 8 5 6 8 9 11 11 10 11 10 5 6 8 7 8 9 7 8 6 6 4 6 8 11 13 9 7 8 9 10
18 17 18 18 19 21 18 15 15 14 11 7 7 5 4 7 7 6 8 10 10 11 10 8 6 7 6 9 10 6 6 6 5 3 4 4 6 10 12 10 11 11 7
16 16 18 16 16 17 18 19 16 14 12 10 7 6 8 6 6 10 9 10 13 10 8 10 8 8 7 6 8 7 9 8 9 12 7 3 6 6 8 15 13 14 11
16 16 16 15 15 15 16 19 17 14 12 11 10 12 9 8 8 8 7 6 6 7 5 7 7 7 6 6 7 8 9 9 9 6 9 11 3 3 5 6 8 13 13
13 13 13 13 13 13 12 13 14 9 10 6 10 6 8 9 5 3 6 4 3 1 2 4 7 8 7 8 9 9 8 8 8 8 6 7 8 8 6 8 7 3 7
13 12 13 12 12 14 12 12 11 11 9 7 11 11 5 7 12 9 6 6 7 6 9 8 9 5 5 6 8 9 11 10 9 8 9 9 5 8 8 10 12 14 11
10 11 13 13 12 14 14 11 12 11 10 9 11 14 8 10 5 5 4 8 7 6 8 8 7 6 7 7 8 7 7 9 8 9 10 9 11 9 9 10 11 13 12
8 9 10 10 10 11 13 11 10 10 11 14 15 10 9 6 8 8 7 8 7 6 8 7 7 7 8 7 7 4 5 9 6 12 12 10 9 9 10 11 10 9 13
6 8 8 9 9 9 11 13 11 10 13 11 9 10 10 11 8 12 12 8 8 7 7 7 7 8 8 7 8 6 6 7 7 7 9 8 8 10 9 9 10 11 11
5 5 6 7 8 8 9 8 11 12 12 12 11 12 10 9 9 10 10 9 7 7 6 6 6 6 7 6 5 6 6 7 5 6 10 8 6 7 8 9 12 12 13
3 4 4 5 6 6 7 7 7 7 8 8 9 9 6 6 7 6 7 8 7 7 8 8 7 6 7 7 6 7 7 8 8 7 7 9 8 7 7 8 10 8 8
4 3 3 2 3 4 5 6 7 7 6 6 6 7 6 7 8 9 8 8 7 8 7 7 7 7 9 7 6 8 9 8 8 8 8 9 6 8 8 7 9 8 10
8 8 7 5 4 3 2 2 3 4 7 7 6 7 7 8 8 8 8 8 9 8 9 9 9 9 9 9 10 9 9 8 8 8 8 10 9 7 7 8 8 7 7
10 8 6 5 4 2 3 3 4 5 5 5 6 6 7 7 7 8 8 9 9 8 9 9 10 9 9 9 9 10 10 10 9 8 8 8 8 10 10 8 9 9 9
12 10 8 6 4 3 2 1 3 4 4 4 5 6 6 7 8 8 8 8 8 8 9 10 9 8 8 6 9 11 11 10 10 9 9 8 8 11 8 8 9 9 9
13 11 10 8 6 5 4 2 2 3 4 5 5 6 7 7 7 8 8 8 8 9 9 10 10 9 8 11 13 12 11 11 10 9 9 9 11 10 16 12 11 10 9
13 11 10 9 7 6 4 4 3 1 3 4 5 6 7 7 7 8 9 9 10 10 10 10 10 10 10 14 15 15 9 10 9 9 9 9 7 9 9 13 16 14 13
11 10 8 7 6 4 4 3 3 3 3 4 4 4 6 7 8 8 9 10 9 10 10 9 10 10 9 14 14 14 10 9 10 8 8 9 9 9 10 11 11 11 11
8 7 6 6 6 6 4 4 3 3 4 5 6 6 7 8 9 9 10 10 9 9 8 9 9 9 9 13 12 10 9 9 9 9 8 8 8 12 17 12 12 12 11
4 5 6 5 6 5 4 3 2 3 5 6 6 7 8 8 9 9 8 8 9 8 7 8 8 10 8 10 9 9 7 9 8 8 9 10 9 10 14 11 12 13 13
6 6 7 7 5 5 3 3 3 4 3 3 4 6 7 8 8 7 7 7 8 8 8 8 8 9 8 9 12 13 9 8 8 8 8 7 13 15 18 19 10 12 14
8 8 7 6 6 5 4 4 3 1 2 3 5 6 7 7 7 8 8 8 8 9 9 9 8 7 9 13 14 16 16 15 9 9 8 8 16 20 21 16 18 20 20
8 7 8 8 7 6 4 4 2 1 3 4 5 5 7 7 8 8 9 7 7 6 7 7 7 8 7 8 18 19 19 18 12 8 13 21 20 22 17 19 20 20 8
9 8 8 8 7 6 4 3 1 2 3 4 5 6 6 7 8 6 6 6 6 6 7 7 8 8 8 9 9 8 10 16 13 15 11 14 19 21 16 12 10 7 7
8 7 7 6 6 5 4 4 4 3 3 4 5 6 6 8 7 6 6 6 7 7 7 8 8 9 9 9 18 18 12 11 14 18 9 8 8 7 6 6 7 7 7
9 8 6 5 5 4 4 4 3 3 3 5 5 5 6 6 6 6 6 9 11 13 15 17 13 9 18 22 23 25 26 26 25 12 10 10 9 7 7 7 8 8 10
Wind_Direction
336 343 326 331 330 321 303 285 275 265 256 249 249 247 239 242 252 223 202 193 199 206 212 215 199 217 248 249 251 261 248 234 232 237 231 236 225 240 244 252 249 252 238
339 334 333 332 336 324 319 292 275 265 260 254 255 243 232 232 231 235 230 218 205 210 230 235 238 253 219 234 246 241 255 255 202 225 231 232 229 236 237 234 243 244 248
333 331 339 331 336 321 311 309 293 267 255 249 263 234 237 248 213 221 199 197 212 216 226 230 232 237 240 227 235 218 224 246 229 210 229 197 240 263 220 221 225 227 229
327 335 334 337 327 326 323 310 285 267 255 247 236 234 231 223 213 194 194 164 194 210 202 229 241 243 238 233 244 235 228 239 246 230 225 246 264 273 267 262 222 230 226
333 338 335 336 336 335 335 330 342 329 287 272 245 246 265 273 247 203 129 111 79 227 280 276 246 256 260 254 248 253 245 245 246 244 226 237 248 243 244 261 259 269 256
336 343 336 355 354 346 347 355 10 20 18 82 73 41 49 45 355 20 50 68 55 50 30 16 10 349 320 300 279 267 261 254 249 247 242 232 216 223 226 242 254 254 252
339 346 349 4 3 357 354 3 14 18 32 75 66 66 18 68 71 31 55 67 56 38 24 18 7 3 9 4 354 335 315 273 258 253 249 244 234 234 231 235 247 249 247
341 351 354 8 12 9 359 13 23 24 32 43 46 35 40 44 53 36 55 52 49 38 19 16 12 5 14 7 349 344 358 346 323 269 248 246 242 239 235 240 237 246 246
348 358 358 2 15 18 20 15 32 45 47 55 60 58 47 46 33 32 36 33 32 28 15 14 14 10 22 4 353 359 3 343 349 341 358 349 297 251 239 235 236 235 244
352 2 8 2 8 18 22 34 21 32 37 39 45 52 45 40 39 44 37 29 23 11 15 8 20 9 19 10 2 349 9 350 350 359 345 344 343 342 347 293 247 238 243
329 354 5 2 357 9 19 24 35 53 47 50 39 40 52 56 51 40 32 27 19 2 4 357 358 20 355 1 11 3 2 351 348 354 349 338 344 346 339 337 349 279 228
256 263 270 312 342 358 5 17 6 15 10 43 43 61 55 42 37 43 34 18 12 15 7 357 354 7 5 338 7 2 351 345 338 343 342 331 341 352 347 347 340 338 335
225 228 230 237 244 253 291 322 358 23 22 26 35 40 33 28 28 27 24 11 360 1 1 355 358 353 350 347 359 345 331 324 334 337 337 332 339 353 343 334 337 336 328
236 243 256 250 257 290 358 11 25 21 18 25 23 22 21 19 14 8 5 356 353 350 347 349 345 342 343 340 349 335 333 332 329 326 324 330 339 342 332 343 335 333 322
235 236 236 240 220 237 240 312 15 15 8 8 13 11 0 358 358 359 352 344 343 339 340 331 332 332 328 340 341 333 327 323 321 322 328 328 338 307 316 327 332 333 328
234 230 224 222 219 212 219 200 320 0 346 348 353 353 350 349 347 341 335 333 334 332 329 329 327 325 322 334 332 332 323 316 319 321 326 327 316 336 324 317 320 315 319
237 230 229 222 219 210 204 208 207 257 307 320 335 336 336 333 334 329 326 328 327 327 325 325 323 318 319 320 324 327 319 313 313 319 320 317 321 324 325 331 332 319 319
243 233 221 215 204 196 188 186 222 267 293 298 310 322 324 322 325 325 325 325 327 323 322 316 313 310 307 312 312 316 311 303 302 297 299 305 319 320 354 335 324 320 308
242 237 217 200 183 187 178 201 207 256 289 314 327 333 332 328 328 326 325 321 317 311 308 305 305 300 297 307 306 302 298 290 293 288 296 301 307 319 337 329 323 324 320
238 193 173 166 179 168 172 204 268 311 312 346 334 327 326 322 320 318 311 310 308 304 307 303 295 295 292 305 313 318 311 310 309 311 309 310 311 319 317 313 312 308 309
193 175 170 176 174 139 161 216 270 280 9 317 317 320 322 319 317 314 312 302 296 296 293 298 308 311 318 317 324 316 313 312 316 306 303 303 312 314 309 307 304 300 307
171 176 171 156 142 150 177 217 237 74 291 309 314 315 316 313 310 302 301 303 303 312 313 319 318 318 322 325 322 318 310 308 307 300 295 301 308 307 307 307 303 312 313
180 176 172 164 171 175 195 216 201 238 285 295 303 309 307 299 297 304 305 307 312 306 315 317 315 318 321 319 317 315 317 317 307 292 292 297 303 306 310 303 310 318 308
184 182 179 184 180 181 189 220 232 264 277 291 298 300 293 298 292 293 292 297 300 307 309 310 311 314 314 310 309 321 315 307 303 297 291 294 296 295 287 290 302 301 297
184 184 190 190 194 180 199 195 217 228 259 288 291 288 291 294 294 293 291 293 291 299 307 307 311 306 304 305 306 308 306 300 300 306 299 291 286 290 286 287 289 292 293
174 180 185 184 185 201 212 214 214 232 285 291 289 293 294 291 291 290 299 296 303 306 306 299 295 289 294 304 308 306 305 302 300 296 292 289 287 282 286 293 296 291 290